sat.trackr.live / text

‹ back to catalog

ICEYE-X82

NORAD 68996 · 2026-100S

PAYLOAD ACTIVE UNKNOWN

§ Identity

Operator
Country
POR
Launch date
2026-05-03
Launch site
AFWTR
Launch vehicle
Mass (kg)
RCS (m²)

External: N2YO · Heavens-Above · Gunter

§ Orbital elements

Epoch: 2026-09-19T22:51:38.661984Z

Period
96.54 min
Inclination
97.7226°
Eccentricity
0.0003898
Mean motion
14.91651196 rev/d
Perigee alt
590.1 km
Apogee alt
595.5 km
Semi-major
6,970.9 km
B*
1.3098e-4
RAAN
158.4972°
Arg perigee
171.4401°
Mean anomaly
188.6885°
Rev number
2,082

§ Raw data

ICEYE-X821 68996U 26100S   26262.95253081  .00001261  00000+0  13098-3 0  99912 68996  97.7226 158.4972 0003898 171.4401 188.6885 14.91651196 20824

JSON: /api/v1/satellites/68996 · /tle

For live sub-satellite position, see the globe view (requires WebGL).

§ Visibility from observer

Set your observer location to see the next 7 days of passes ≥ 10°. The values pass through the URL so the page stays shareable.

No JS? Fill the form by hand. The geolocation button needs JavaScript.